Flag Weather past 2 weeks in Dubai, Dubai, United Arab Emirates

Now
91 °F

Passing clouds.


Feels Like: 93 °F
Forecast: 80 / 92 °F
Wind: 10 mph from North

Location: Dubai International Airport

Current Time: Oct 30, 2014 at 5:57:23 PM

Latest Report: Oct 30, 2014 at 5:00 PM


Visibility: N/A

Pressure: 29.80 "Hg

Humidity: 41%

Dew point: 64 °F

Location of DubaiLocation

Historic Weather in Dubai — Graph

°F

Dubai temperature yesterday

Maximum temperature yesterday: 99 °F (at 1:00 PM)
Minimum temperature yesterday: 79 °F (at 5:00 AM)
Average temperature yesterday: 89 °F

Past Weeks' High & Low Weather Summary

 TemperatureHumidityPressure
High100 °F (Oct 17, 12:00 PM)84% (Oct 18, 3:00 AM)30.01 "Hg (Oct 18, 3:00 AM)
Low77 °F (Oct 24, 6:00 AM)13% (Oct 28, 1:00 PM)29.80 "Hg (Oct 19, 3:00 PM)
Average88 °F49%29.89 "Hg
* Reported Oct 15 4:00 PM — Oct 30 4:00 PM, Dubai, Weather by CustomWeather, © 2014

Note: Actual official high and low records may vary slightly from our data, if they occured in-between our weather recording intervals... More about our weather records

Advertising

Dubai weather history for previous 24 hours

 ConditionsComfort  
Time TempWeatherWind HumidityBarometerVisibility
4:00 PM
Oct 30
91 °FPassing clouds.10 mph44%29.80 "HgN/A
3:00 PM91 °FPassing clouds.6 mph44%29.80 "HgN/A
2:00 PM97 °FPassing clouds.10 mph19%29.83 "HgN/A
1:00 PM95 °FPassing clouds.9 mph19%29.83 "HgN/A
12:00 PM95 °FPassing clouds.9 mph19%29.86 "HgN/A
11:00 AM93 °FPassing clouds.10 mph20%29.89 "HgN/A
10:00 AM90 °FPassing clouds.8 mph29%29.92 "HgN/A
9:00 AM84 °FPassing clouds.8 mph35%29.92 "HgN/A
8:00 AM81 °FPassing clouds.6 mph42%29.89 "HgN/A
7:00 AM81 °FPassing clouds.5 mph34%29.89 "HgN/A
6:00 AM81 °FPassing clouds.5 mph37%29.86 "HgN/A
5:00 AM82 °FClear.7 mph32%29.86 "Hg10 mi
4:00 AM81 °FPassing clouds.8 mph28%29.86 "HgN/A
3:00 AM82 °FPassing clouds.8 mph28%29.86 "HgN/A
2:00 AM82 °FClear.8 mph30%29.86 "Hg10 mi
1:00 AM84 °FClear.6 mph29%29.86 "Hg10 mi
12:00 AM86 °FClear.7 mph27%29.86 "Hg10 mi
11:00 PM
Oct 29
86 °FPassing clouds.7 mph27%29.86 "HgN/A
10:00 PM86 °FPassing clouds.7 mph27%29.86 "HgN/A
9:00 PM88 °FClear.7 mph24%29.86 "Hg10 mi
8:00 PM90 °FPassing clouds.12 mph22%29.86 "HgN/A
7:00 PM93 °FPassing clouds.13 mph19%29.86 "HgN/A
6:00 PM95 °FClear.10 mph14%29.83 "Hg10 mi
5:00 PM97 °FSunny.14 mph13%29.83 "Hg10 mi
Weather by CustomWeather, © 2014

See weather overviewHow to use our weather pages